SQ2CET-13 Weather Reports


time (UTC)temp
C
wind
direction
speed
KPH
gust
KPH
rain 1hr
cm
rain 24hr
cm
rain mn
cm
humidity
%
barometer
mb
20260906150047 17 239 17.7 35.4 0.00 1.09 0.94 69 1023.6
20260906145131 17 261 9.7 22.5 0.00 1.09 0.94 70 1023.5
20260906144030 17 249 9.7 20.9 0.00 1.09 0.94 72 1023.5
20260906143113 16 248 9.7 19.3 0.00 1.09 0.94 73 1023.4
20260906142117 17 248 12.9 27.4 0.00 1.09 0.94 70 1023.4
20260906141038 17 256 12.9 35.4 0.00 1.09 0.94 66 1023.3
20260906140030 17 244 14.5 32.2 0.00 1.09 0.94 64 1023.3
20260906135053 17 247 16.1 29.0 0.00 1.09 0.94 62 1023.2
20260906134102 18 249 6.4 17.7 0.00 1.09 0.94 66 1023.0
20260906133120 17 299 8.0 17.7 0.00 1.09 0.94 70 1023.0
20260906132040 17 282 6.4 22.5 0.00 1.09 0.94 67 1023.0
20260906131103 17 271 8.0 24.1 0.00 1.09 0.94 67 1022.8
20260906130120 17 266 11.3 20.9 0.00 1.09 0.94 70 1022.7
20260906125031 16 305 8.0 20.9 0.00 1.09 0.94 72 1022.8
20260906124115 17 243 12.9 22.5 0.00 1.09 0.94 70 1022.7
20260906123137 17 262 9.7 24.1 0.00 1.09 0.94 69 1022.7
20260906122120 17 255 9.7 27.4 0.00 1.09 0.94 70 1022.6
20260906121023 17 265 9.7 22.5 0.00 1.09 0.94 69 1022.6
20260906120048 17 266 11.3 24.1 0.00 1.09 0.94 66 1022.3
20260906115109 18 262 9.7 27.4 0.00 1.09 0.94 64 1022.3
20260906114031 17 245 14.5 29.0 0.00 1.09 0.94 66 1022.0
20260906113054 18 263 9.7 27.4 0.00 1.09 0.94 66 1022.0
20260906112118 17 248 6.4 17.7 0.00 1.09 0.94 68 1022.0
20260906111029 18 302 8.0 24.1 0.00 1.09 0.94 64 1021.6
20260906110054 17 321 6.4 20.9 0.00 1.09 0.94 67 1021.5
20260906105118 17 317 6.4 24.1 0.00 1.09 0.94 64 1021.5
20260906104030 17 315 9.7 25.7 0.00 1.09 0.94 63 1021.4
20260906103054 17 264 8.0 19.3 0.00 1.09 0.94 65 1021.2
20260906102139 17 310 8.0 25.7 0.00 1.09 0.94 67 1021.1
20260906101035 17 292 9.7 24.1 0.00 1.09 0.94 65 1021.0
20260906100055 17 252 9.7 22.5 0.00 1.09 0.94 66 1020.8
20260906095126 16 280 8.0 17.7 0.00 1.09 0.94 71 1020.7
20260906094038 16 289 8.0 20.9 0.00 1.09 0.94 71 1020.5
20260906093102 17 334 9.7 24.1 0.00 1.09 0.94 70 1020.4
20260906092022 17 341 8.0 22.5 0.00 1.09 0.94 68 1020.4
20260906091047 16 318 9.7 32.2 0.00 1.09 0.94 70 1020.3
20260906090124 16 279 4.8 20.9 0.00 1.09 0.94 71 1020.1
20260906085123 16 321 9.7 20.9 0.00 1.14 0.94 72 1020.0
20260906084038 17 285 9.7 19.3 0.00 1.14 0.94 69 1019.8
20260906083102 15 302 8.0 25.7 0.00 1.14 0.94 72 1019.6
20260906082022 16 316 8.0 19.3 0.00 1.17 0.94 72 1019.5
20260906081047 16 293 11.3 29.0 0.00 1.17 0.94 72 1019.3
20260906075131 15 323 6.4 20.9 0.00 1.17 0.94 75 1019.0
20260906074043 15 272 8.0 25.7 0.00 1.17 0.94 76 1019.0
20260906073047 15 311 11.3 24.1 0.00 1.17 0.94 77 1018.8
20260906072110 14 269 6.4 24.1 0.00 1.17 0.94 80 1018.4
20260906071128 15 285 9.7 22.5 0.00 1.17 0.94 80 1018.5
20260906070040 15 286 6.4 17.7 0.00 1.17 0.94 80 1018.1
20260906065105 15 338 8.0 19.3 0.00 1.17 0.94 80 1018.0
20260906064023 13 321 6.4 19.3 0.00 1.17 0.94 83 1017.7
20260906063047 13 273 6.4 16.1 0.00 1.17 0.94 84 1017.5
20260906062111 13 288 6.4 19.3 0.00 1.17 0.94 84 1017.5
20260906061035 14 258 4.8 11.3 0.00 1.17 0.94 84 1017.1
20260906060055 13 266 4.8 17.7 0.00 1.17 0.94 85 1017.0
20260906055119 13 269 6.4 16.1 0.00 1.17 0.94 86 1016.8
20260906054040 13 273 4.8 12.9 0.00 1.19 0.94 87 1016.7
20260906053123 13 264 6.4 17.7 0.00 1.22 0.94 87 1016.5
20260906052022 13 283 6.4 17.7 0.00 1.32 0.94 87 1016.3
20260906051039 13 303 4.8 17.7 0.00 1.42 0.94 87 1016.1
20260906045118 12 263 6.4 14.5 0.00 1.45 0.94 88 1015.7
20260906044031 12 273 6.4 11.3 0.00 1.45 0.94 88 1015.5
20260906043107 12 271 6.4 14.5 0.00 1.45 0.94 87 1015.3
20260906042110 12 258 4.8 14.5 0.00 1.45 0.94 88 1015.1
20260906041023 12 270 8.0 16.1 0.00 1.65 0.94 88 1014.9
20260906040046 12 244 6.4 12.9 0.00 1.68 0.94 88 1014.7
20260906035110 12 302 6.4 14.5 0.00 1.68 0.94 88 1014.5
20260906034024 12 264 6.4 14.5 0.00 1.68 0.94 88 1014.3
20260906033047 12 277 8.0 16.1 0.00 1.68 0.94 88 1014.1
20260906032106 12 266 6.4 17.7 0.00 1.68 0.94 89 1013.8
20260906031023 12 266 6.4 16.1 0.05 1.68 0.94 89 1013.6
20260906030047 12 285 8.0 20.9 0.13 1.68 0.94 89 1013.4
20260906025111 12 284 9.7 20.9 0.38 1.68 0.94 89 1013.3
20260906024052 12 262 8.0 19.3 0.38 1.68 0.94 89 1013.1
20260906023054 12 277 8.0 22.5 0.48 1.68 0.94 90 1012.8
20260906022118 12 264 8.0 17.7 0.53 1.68 0.94 90 1012.7
20260906021038 12 273 14.5 41.8 0.51 1.63 0.89 90 1012.5
20260906020111 12 279 9.7 19.3 0.66 1.55 0.81 90 1012.4
20260906015022 12 248 11.3 24.1 0.46 1.30 0.56 90 1012.0
20260906014046 12 245 8.0 14.5 0.43 1.27 0.53 90 1012.0
20260906013151 12 240 9.7 16.1 0.33 1.19 0.46 90 1012.2
20260906012030 12 258 8.0 16.1 0.28 1.14 0.41 90 1012.2
20260906011054 12 253 9.7 20.9 0.33 1.12 0.38 89 1012.1
20260906010158 12 246 9.7 17.7 0.13 0.89 0.15 87 1012.1
20260906005039 13 238 16.1 25.7 0.13 0.84 0.10 85 1012.1
20260906004123 13 253 11.3 24.1 0.13 0.84 0.10 85 1012.1
20260906003022 12 248 12.9 27.4 0.18 0.84 0.10 86 1012.2
20260906002047 12 246 8.0 24.1 0.18 0.84 0.10 87 1012.3
20260906001131 12 227 12.9 24.1 0.13 0.79 0.05 87 1012.2
20260906000030 12 238 9.7 20.9 0.13 0.76 0.03 86 1012.3
20260905235054 12 238 9.7 20.9 0.10 0.74 0.74 86 1012.2
20260905234119 12 236 16.1 27.4 0.10 0.71 0.71 85 1012.1
20260905233039 12 240 9.7 25.7 0.05 0.66 0.66 85 1012.1
20260905232103 12 241 8.0 19.3 0.05 0.71 0.66 85 1012.2
20260905231126 13 238 16.1 22.5 0.05 0.71 0.66 84 1012.2
20260905230038 13 232 9.7 20.9 0.00 0.97 0.64 85 1012.3
20260905225102 13 242 9.7 20.9 0.00 1.50 0.64 83 1012.0
20260905224044 13 235 11.3 25.7 0.00 1.65 0.64 84 1012.2
20260905223046 13 238 12.9 24.1 0.00 1.78 0.64 83 1012.2
20260905222110 13 241 11.3 20.9 0.00 1.80 0.64 84 1012.1
20260905221051 13 234 9.7 20.9 0.00 1.80 0.64 84 1012.1
20260905220055 13 239 14.5 24.1 0.00 1.80 0.64 84 1012.1
20260905215132 13 238 11.3 20.9 0.00 1.80 0.64 85 1012.1
20260905214023 13 239 9.7 22.5 0.00 1.80 0.64 86 1012.1
20260905213047 13 236 11.3 24.1 0.00 1.80 0.64 86 1012.0
20260905212111 13 237 9.7 19.3 0.00 1.80 0.64 86 1012.0
20260905211031 13 244 9.7 20.9 0.00 1.80 0.64 86 1011.9
20260905210114 13 235 12.9 24.1 0.00 1.80 0.64 85 1011.9
20260905205118 13 232 12.9 20.9 0.00 1.80 0.64 85 1012.0
20260905204039 13 241 9.7 22.5 0.00 1.80 0.64 85 1011.9
20260905203104 13 241 12.9 20.9 0.00 1.80 0.64 86 1011.9
20260905202119 13 236 9.7 24.1 0.00 1.80 0.64 86 1011.9
20260905201048 13 246 9.7 19.3 0.00 1.80 0.64 86 1012.0
20260905200104 13 239 9.7 17.7 0.00 1.80 0.64 86 1011.9
20260905195024 13 241 9.7 19.3 0.00 1.80 0.64 86 1011.9
20260905194108 13 232 12.9 20.9 0.00 1.80 0.64 86 1012.0
20260905193111 13 235 9.7 20.9 0.00 1.80 0.64 85 1012.0
20260905192032 13 244 11.3 22.5 0.00 1.80 0.64 85 1011.9
20260905191055 13 236 12.9 20.9 0.00 1.80 0.64 85 1011.9
20260905190120 13 252 9.7 22.5 0.00 1.80 0.64 85 1011.9
20260905185120 13 236 9.7 19.3 0.03 1.80 0.64 84 1011.8
20260905184103 13 236 14.5 24.1 0.03 1.83 0.64 83 1011.8
20260905183119 13 235 14.5 25.7 0.03 1.83 0.64 84 1011.8
20260905182031 13 241 9.7 20.9 0.03 1.83 0.64 84 1011.7
20260905181105 13 246 9.7 25.7 0.03 1.83 0.64 84 1011.5
20260905180108 13 243 11.3 22.5 0.03 1.83 0.64 82 1011.4
20260905175024 13 245 12.9 22.5 0.00 1.80 0.61 81 1011.3
20260905174047 13 243 11.3 22.5 0.00 1.80 0.61 80 1011.3
20260905173111 13 232 14.5 24.1 0.00 1.80 0.61 79 1011.3
20260905172051 13 233 14.5 29.0 0.00 1.80 0.61 78 1011.2
20260905171056 13 240 11.3 24.1 0.00 1.80 0.61 78 1011.0
20260905170112 14 245 11.3 25.7 0.00 1.83 0.61 78 1011.2
20260905165031 14 234 14.5 24.1 0.00 1.83 0.61 77 1010.9
20260905164047 14 237 11.3 25.7 0.00 1.83 0.61 76 1010.8
20260905163103 15 237 14.5 27.4 0.00 1.83 0.61 75 1010.6
20260905162120 15 241 11.3 25.7 0.00 1.83 0.61 75 1010.4
20260905161040 15 244 12.9 29.0 0.00 1.83 0.61 74 1010.4
20260905155131 15 237 16.1 32.2 0.00 1.88 0.61 73 1010.2
20260905154024 15 241 17.7 29.0 0.00 1.93 0.61 73 1010.3
20260905153047 15 241 12.9 27.4 0.00 1.93 0.61 72 1010.4
20260905152055 16 233 16.1 33.8 0.00 1.96 0.61 71 1010.2
20260905151119 16 245 12.9 30.6 0.00 1.98 0.61 70 1010.2
20260905150059 16 240 17.7 33.8 0.00 2.06 0.61 72 1010.3